Regional Weather Roundup
Issued by NWS

Home | Current Version | Previous Version | Graphics & Text | Print | Product List | Glossary On
Versions: 1 2 3 4 5 6 7 8 9 10 11 12 13 14 15 16 17 18 19 20 21 22 23 24 25 26 27 28 29 30 31 32 33 34 35 36 37 38 39 40 41 42 43 44 45 46 47 48 49 50
000
ASUS43 KFSD 270702
RWRSD

WEATHER ROUNDUP FOR SOUTH DAKOTA
NATIONAL WEATHER SERVICE SIOUX FALLS SD
200 AM CDT WED MAY 27 2015

NOTE: "FAIR" INDICATES FEW OR NO CLOUDS BELOW 12,000 FEET WITH NO
SIGNIFICANT WEATHER AND/OR OBSTRUCTIONS TO VISIBILITY.


SDZ001>005-009-010-012>017-270800-
NORTHWEST AND NORTH CENTRAL SOUTH DAKOTA

CITY           SKY/WX    TMP DP  RH WIND       PRES   REMARKS
FAITH            N/A     53  44  71 S8        29.96F
MOBRIDGE       CLEAR     54  52  93 CALM      29.90F
$$

SDZ012>016-024>037-041>051-057-063-072>074-270800-
SOUTHWEST AND SOUTH CENTRAL SOUTH DAKOTA

CITY           SKY/WX    TMP DP  RH WIND       PRES   REMARKS
RAPID CTY ARPT PTCLDY    51  47  86 CALM      29.98F
PIERRE         CLEAR     59  47  64 SW3       29.94R
CUSTER         MOCLDY    45  43  93 CALM      30.07F
ELLSWORTH AFB  CLEAR     54  48  79 S6        29.97F
PHILIP         CLEAR     53  47  79 W3        29.97S
PINE RIDGE     PTCLDY    54  44  69 CALM      30.00F
WINNER         FAIR      59  48  67 SW7       29.97S
$$

SDZ004>011-016>023-039-040-270800-
NORTHEAST SOUTH DAKOTA

CITY           SKY/WX    TMP DP  RH WIND       PRES   REMARKS
ABERDEEN       CLEAR     52  50  93 SW7       29.89S
WATERTOWN      CLEAR     60  48  64 W8        29.88S
BROOKINGS      MOCLDY    55  52  88 W3        29.90S
$$

SDZ017-020-022-023-036>040-048>070-270800-
SOUTHEAST SOUTH DAKOTA

CITY           SKY/WX    TMP DP  RH WIND       PRES   REMARKS
SIOUX FALLS    PTCLDY    54  50  86 CALM      29.90S
HURON          CLEAR     54  50  86 W3        29.90S
CHAMBERLAIN    CLEAR     54  50  87 W3        29.95S
MITCHELL       CLEAR     58  51  78 SW6       29.92R
YANKTON        CLEAR     57  52  82 SW7       29.91F
$$

ABBREVIATIONS USED IN REMARKS
   TC - TEMPERATURE IN CELSIUS
  WCI - WIND CHILL INDEX
   HX - HEAT INDEX
  VSB - VISIBILITY




USA.gov is the U.S. government's official web portal to all federal, state and local government web resources and services.